Regional Weather Roundup
Issued by NWS

Home | Current Version | Previous Version | Graphics & Text | Print | Product List | Glossary On
Versions: 1 2 3 4 5 6 7 8 9 10 11 12 13 14 15 16 17 18 19 20 21 22 23 24 25 26 27 28 29 30 31 32 33 34 35 36 37 38 39 40 41 42 43 44 45 46 47 48 49 50
000
ASUS43 KIND 241509
RWRIN

WEATHER ROUNDUP FOR INDIANA
NATIONAL WEATHER SERVICE INDIANAPOLIS IN
1100 AM EDT THU APR 24 2014

NOTE: "FAIR" INDICATES FEW OR NO CLOUDS BELOW 12,000 FEET WITH NO
SIGNIFICANT WEATHER AND/OR OBSTRUCTIONS TO VISIBILITY.

* - STATION DOES NOT REPORT WEATHER SUCH AS PRECIPITATION OR FOG.

+ - STATION NOT QUALITY CONTROLLED BY THE NATIONAL WEATHER SERVICE.
    USE DATA WITH CAUTION...ESPECIALLY DEWPOINT AND RELATIVE
    HUMIDITY OBSERVATIONS.

INZ001>003-010>013-019-020-241600-
NORTHWEST INDIANA

CITY           SKY/WX    TMP DP  RH WIND       PRES   REMARKS
GARY /AIRPORT/ CLOUDY    55  36  47 SE14G28   29.98F
LA PORTE +     PTSUNNY   54  29  38 SE20G25   30.02F
MICHIGAN CITY+ CLOUDY    55  28  35 SE14G24   30.01F
MONTICELLO +   MOSUNNY   55  33  43 SE8G18    30.01F
RENSSELAER +   PTSUNNY   55  34  44 SE20G25   30.01S
VALPARAISO     PTSUNNY   55  31  39 SE20G30   30.00F

$$

LMZ046-743>745-241600-
SOUTHERN LAKE MICHIGAN

STATION/POSITION TIME  TEMP WIND        PRES
                       AIR  DIR/SP/G
                 (UTC) (F)  (DEG/KT/KT) (MB)
MICHIGAN CITY    1500   54  120/ 18/ 24   N/A

$$

INZ004-005-014>016-021>024-241600-
NORTH CENTRAL INDIANA

CITY           SKY/WX    TMP DP  RH WIND       PRES   REMARKS
ELKHART        PTSUNNY   54  30  40 SE14G23   30.06F
GOSHEN         CLOUDY    55  31  39 SE17G25   30.07F
LOGANSPORT +   MOSUNNY   55  28  35 SE18      30.04F
PERU/GRISSOM   MOSUNNY   56  31  37 SE23      30.03F
ROCHESTER +    PTSUNNY   57  30  35 SE20G26   30.05F
SOUTH BEND     PTSUNNY   55  31  39 SE20G28   30.05F
WARSAW +       PTSUNNY   52  30  43 SE16      30.06F

$$

INZ006>009-017-018-025>027-241600-
NORTHEAST INDIANA

CITY           SKY/WX    TMP DP  RH WIND       PRES   REMARKS
ANGOLA *+      SUNNY     48  28  46 SE15      30.11S
AUBURN +       CLOUDY    52  28  40 E9G16     30.11S
FORT WAYNE     CLOUDY    52  23  32 SE17      30.10F

$$

INZ028-029-035-036-043>045-051>053-241600-
WEST CENTRAL INDIANA

CITY           SKY/WX    TMP DP  RH WIND       PRES   REMARKS
GREENCASTLE +  MOSUNNY   55  37  50 SE16      30.02F
LAFAYETTE      PTSUNNY   55  34  45 SE17G25   30.01F
TERRE HAUTE    PTSUNNY   59  37  44 SE18      29.99F

$$

INZ030>032-037>040-046>048-054>057-064-065-241600-
CENTRAL INDIANA

CITY           SKY/WX    TMP DP  RH WIND       PRES   REMARKS
ANDERSON       SUNNY     54  23  30 E17G29    30.07F
CP ATTERBURY + MOSUNNY   55  34  44 SE14G22   30.06F
COLUMBUS       MOSUNNY   55  34  44 MISG      30.06F
INDIANAPOLIS   CLOUDY    55  32  41 SE18      30.03F
-EAGLE CREEK   PTSUNNY   54  29  38 E14G22    30.03F
KOKOMO *+      MOSUNNY   55  30  38 SE21      30.04F
MARION +       MOSUNNY   54  22  28 SE16G26   30.05F
MT COMFORT *+  PTSUNNY   55  30  38 SE17      30.06S
SHELBYVILLE    PTSUNNY   57  29  34 SE20      30.05F
ZIONSVILLE +   PTSUNNY   55  24  30 SE15G24   30.04F

$$

INZ033-034-041-042-049-050-058-059-241600-
EAST CENTRAL INDIANA

CITY           SKY/WX    TMP DP  RH WIND       PRES   REMARKS
MUNCIE         MOSUNNY   54  23  30 SE16G23   30.07F

$$

INZ060-061-067>069-081>083-085>088-241600-
SOUTHWEST INDIANA

CITY           SKY/WX    TMP DP  RH WIND       PRES   REMARKS
EVANSVILLE     PTSUNNY   60  37  42 E8        29.98F
HUNTINGBURG *+ MOSUNNY   59  37  44 SE15      30.01S
WASHINGTON +   MOSUNNY   58  38  47 SE16      30.00S

$$

INZ062-063-066-070>080-084-089>092-241600-
SOUTH CENTRAL AND SOUTHEAST INDIANA

CITY           SKY/WX    TMP DP  RH WIND       PRES   REMARKS
BLOOMINGTON    MOSUNNY   56  34  43 SE14G22   30.02F

$$




USA.gov is the U.S. government's official web portal to all federal, state and local government web resources and services.